| time (UTC) | temp F | wind direction | speed knots | gust knots | rain 1hr in | rain 24hr in | rain mn in | humidity % | barometer mb |
| 20260510203444 | 67 | 16 | 3.5 | 9.6 | 0.00 | 0.00 | 0.00 | 42 | 461.6 |
| 20260510202944 | 67 | 31 | 3.5 | 9.6 | 0.00 | 0.00 | 0.00 | 41 | 440.6 |
| 20260510202444 | 67 | 8 | 3.5 | 9.6 | 0.00 | 0.00 | 0.00 | 44 | 431.4 |
| 20260510201943 | 67 | 39 | 3.5 | 9.6 | 0.00 | 0.00 | 0.00 | 41 | 425.5 |
| 20260510201441 | 67 | 19 | 3.5 | 10.4 | 0.00 | 0.00 | 0.00 | 42 | 500.5 |
| 20260510200941 | 67 | 22 | 2.6 | 10.4 | 0.00 | 0.00 | 0.00 | 41 | 394.0 |
| 20260510200439 | 67 | 40 | 2.6 | 10.4 | 0.00 | 0.00 | 0.00 | 40 | 463.5 |
| 20260510195939 | 67 | 8 | 2.6 | 10.4 | 0.00 | 0.00 | 0.00 | 41 | 502.8 |
| 20260510195439 | 67 | 9 | 3.5 | 10.4 | 0.00 | 0.00 | 0.00 | 43 | 476.8 |
| 20260510194939 | 67 | 30 | 1.7 | 10.4 | 0.00 | 0.00 | 0.00 | 41 | 381.9 |
| 20260510194438 | 67 | 35 | 3.5 | 10.4 | 0.00 | 0.00 | 0.00 | 39 | 376.1 |
| 20260510193937 | 67 | 46 | 1.7 | 10.4 | 0.00 | 0.00 | 0.00 | 42 | 374.8 |
| 20260510193436 | 67 | 27 | 1.7 | 10.4 | 0.00 | 0.00 | 0.00 | 41 | 352.4 |
| 20260510192420 | 67 | 25 | 3.5 | 10.4 | 0.00 | 0.00 | 0.00 | 40 | 438.1 |
| 20260510191919 | 67 | 30 | 4.3 | 10.4 | 0.00 | 0.00 | 0.00 | 39 | 515.2 |
| 20260510191417 | 67 | 13 | 3.5 | 9.6 | 0.00 | 0.00 | 0.00 | 40 | 627.0 |
| 20260510190916 | 67 | 0 | 1.7 | 9.6 | 0.00 | 0.00 | 0.00 | 41 | 680.7 |
| 20260510185901 | 66 | 9 | 3.5 | 9.6 | 0.00 | 0.00 | 0.00 | 42 | 468.4 |
| 20260510184844 | 67 | 29 | 3.5 | 9.6 | 0.00 | 0.00 | 0.00 | 39 | 419.3 |
| 20260510184343 | 67 | 31 | 3.5 | 9.6 | 0.00 | 0.00 | 0.00 | 41 | 424.7 |
| 20260510183843 | 67 | 29 | 3.5 | 9.6 | 0.00 | 0.00 | 0.00 | 40 | 481.1 |
| 20260510183342 | 67 | 24 | 3.5 | 10.4 | 0.00 | 0.00 | 0.00 | 39 | 536.1 |
| 20260510182842 | 67 | 5 | 1.7 | 10.4 | 0.00 | 0.00 | 0.00 | 40 | 651.7 |
| 20260510181840 | 67 | 25 | 3.5 | 10.4 | 0.00 | 0.00 | 0.00 | 41 | 520.1 |
| 20260510181339 | 67 | 24 | 4.3 | 10.4 | 0.00 | 0.00 | 0.00 | 40 | 558.6 |
| 20260510180838 | 66 | 4 | 3.5 | 10.4 | 0.00 | 0.00 | 0.00 | 41 | 562.6 |
| 20260510180338 | 66 | 27 | 3.5 | 10.4 | 0.00 | 0.00 | 0.00 | 40 | 461.3 |
| 20260510175837 | 67 | 27 | 4.3 | 10.4 | 0.00 | 0.00 | 0.00 | 38 | 505.5 |
| 20260510174820 | 67 | 355 | 2.6 | 10.4 | 0.00 | 0.00 | 0.00 | 39 | 597.8 |
| 20260510173803 | 68 | 7 | 4.3 | 12.2 | 0.00 | 0.00 | 0.00 | 38 | 568.5 |
| 20260510172746 | 68 | 353 | 4.3 | 13.0 | 0.00 | 0.00 | 0.00 | 40 | 538.4 |
| 20260510172245 | 68 | 30 | 5.2 | 13.0 | 0.00 | 0.00 | 0.00 | 38 | 444.2 |
| 20260510171744 | 67 | 20 | 5.2 | 13.0 | 0.00 | 0.00 | 0.00 | 37 | 402.0 |
| 20260510171243 | 67 | 31 | 4.3 | 11.3 | 0.00 | 0.00 | 0.00 | 38 | 391.1 |
| 20260510170742 | 67 | 31 | 5.2 | 11.3 | 0.00 | 0.00 | 0.00 | 38 | 422.4 |
| 20260510170242 | 67 | 25 | 3.5 | 10.4 | 0.00 | 0.00 | 0.00 | 39 | 426.5 |
| 20260510165741 | 67 | 44 | 4.3 | 10.4 | 0.00 | 0.00 | 0.00 | 39 | 366.5 |
| 20260510165240 | 67 | 26 | 4.3 | 10.4 | 0.00 | 0.00 | 0.00 | 39 | 361.1 |
| 20260510164739 | 67 | 20 | 4.3 | 10.4 | 0.00 | 0.00 | 0.00 | 39 | 395.9 |
| 20260510163722 | 66 | 50 | 6.1 | 15.6 | 0.00 | 0.00 | 0.00 | 36 | 351.8 |
| 20260510163221 | 66 | 49 | 4.3 | 10.4 | 0.00 | 0.00 | 0.00 | 39 | 391.3 |
| 20260510162721 | 66 | 27 | 2.6 | 10.4 | 0.00 | 0.00 | 0.00 | 41 | 390.7 |
| 20260510162220 | 66 | 34 | 3.5 | 10.4 | 0.00 | 0.00 | 0.00 | 37 | 373.0 |
| 20260510161719 | 67 | 36 | 4.3 | 12.2 | 0.00 | 0.00 | 0.00 | 37 | 381.6 |
| 20260510161218 | 67 | 19 | 4.3 | 12.2 | 0.00 | 0.00 | 0.00 | 39 | 406.3 |
| 20260510160717 | 66 | 40 | 4.3 | 11.3 | 0.00 | 0.00 | 0.00 | 40 | 379.1 |
| 20260510160214 | 65 | 23 | 4.3 | 12.2 | 0.00 | 0.00 | 0.00 | 39 | 428.5 |
| 20260510155714 | 65 | 28 | 5.2 | 12.2 | 0.00 | 0.00 | 0.00 | 40 | 415.5 |
| 20260510155213 | 64 | 31 | 4.3 | 13.0 | 0.00 | 0.00 | 0.00 | 41 | 389.1 |
| 20260510154712 | 64 | 27 | 3.5 | 13.0 | 0.00 | 0.00 | 0.00 | 41 | 376.4 |
| 20260510154211 | 63 | 55 | 3.5 | 10.4 | 0.00 | 0.00 | 0.00 | 43 | 367.1 |
| 20260510153711 | 63 | 30 | 5.2 | 12.2 | 0.00 | 0.00 | 0.00 | 44 | 380.9 |
| 20260510152705 | 63 | 17 | 3.5 | 12.2 | 0.00 | 0.00 | 0.00 | 43 | 403.2 |
| 20260510152204 | 63 | 39 | 3.5 | 12.2 | 0.00 | 0.00 | 0.00 | 42 | 357.4 |
| 20260510151703 | 63 | 37 | 6.1 | 11.3 | 0.00 | 0.00 | 0.00 | 42 | 342.1 |
| 20260510151202 | 63 | 28 | 4.3 | 13.0 | 0.00 | 0.00 | 0.00 | 45 | 361.3 |
| 20260510150702 | 63 | 31 | 6.1 | 13.0 | 0.00 | 0.00 | 0.00 | 44 | 356.3 |
| 20260510150202 | 63 | 55 | 2.6 | 11.3 | 0.00 | 0.00 | 0.00 | 45 | 330.1 |
| 20260510145658 | 62 | 43 | 3.5 | 11.3 | 0.00 | 0.00 | 0.00 | 45 | 320.3 |
| 20260510145157 | 62 | 48 | 4.3 | 11.3 | 0.00 | 0.00 | 0.00 | 44 | 354.6 |
| 20260510144140 | 61 | 39 | 3.5 | 11.3 | 0.00 | 0.00 | 0.00 | 46 | 409.2 |
| 20260510143639 | 60 | 28 | 4.3 | 11.3 | 0.00 | 0.00 | 0.00 | 46 | 334.7 |
| 20260510143138 | 60 | 41 | 5.2 | 11.3 | 0.00 | 0.00 | 0.00 | 45 | 369.4 |
| 20260510142637 | 60 | 35 | 5.2 | 10.4 | 0.00 | 0.00 | 0.00 | 46 | 353.2 |
| 20260510141620 | 60 | 42 | 4.3 | 11.3 | 0.00 | 0.00 | 0.00 | 47 | 464.3 |
| 20260510141119 | 60 | 6 | 2.6 | 11.3 | 0.00 | 0.00 | 0.00 | 50 | 383.2 |
| 20260510140618 | 60 | 43 | 4.3 | 10.4 | 0.00 | 0.00 | 0.00 | 47 | 393.7 |
| 20260510140117 | 60 | 13 | 2.6 | 10.4 | 0.00 | 0.00 | 0.00 | 48 | 426.4 |
| 20260510135616 | 59 | 37 | 3.5 | 10.4 | 0.00 | 0.00 | 0.00 | 49 | 400.6 |
| 20260510135115 | 59 | 27 | 3.5 | 10.4 | 0.00 | 0.00 | 0.00 | 52 | 295.3 |
| 20260510134614 | 59 | 27 | 3.5 | 10.4 | 0.00 | 0.00 | 0.00 | 52 | 310.5 |
| 20260510134113 | 59 | 29 | 3.5 | 10.4 | 0.00 | 0.00 | 0.00 | 51 | 371.1 |
| 20260510133056 | 59 | 50 | 3.5 | 10.4 | 0.00 | 0.00 | 0.00 | 51 | 325.9 |
| 20260510132040 | 59 | 65 | 2.6 | 10.4 | 0.00 | 0.00 | 0.00 | 51 | 393.5 |
| 20260510131539 | 59 | 29 | 3.5 | 10.4 | 0.00 | 0.00 | 0.00 | 51 | 390.6 |
| 20260510130523 | 59 | 30 | 2.6 | 12.2 | 0.00 | 0.00 | 0.00 | 52 | 421.1 |
| 20260510130023 | 59 | 34 | 3.5 | 11.3 | 0.00 | 0.00 | 0.00 | 54 | 308.1 |
| 20260510125522 | 59 | 39 | 4.3 | 11.3 | 0.00 | 0.00 | 0.00 | 54 | 310.5 |
| 20260510125021 | 59 | 36 | 2.6 | 9.6 | 0.00 | 0.00 | 0.00 | 55 | 312.2 |
| 20260510124520 | 58 | 39 | 4.3 | 9.6 | 0.00 | 0.00 | 0.00 | 55 | 342.4 |
| 20260510124019 | 58 | 42 | 2.6 | 10.4 | 0.00 | 0.00 | 0.00 | 56 | 423.3 |
| 20260510123518 | 58 | 27 | 3.5 | 10.4 | 0.00 | 0.00 | 0.00 | 57 | 359.7 |
| 20260510123018 | 58 | 21 | 2.6 | 10.4 | 0.00 | 0.00 | 0.00 | 58 | 372.0 |
| 20260510122517 | 58 | 20 | 2.6 | 10.4 | 0.00 | 0.00 | 0.00 | 58 | 407.4 |
| 20260510122017 | 58 | 26 | 4.3 | 11.3 | 0.00 | 0.00 | 0.00 | 59 | 365.0 |
| 20260510121517 | 58 | 31 | 3.5 | 11.3 | 0.00 | 0.00 | 0.00 | 60 | 360.5 |
| 20260510121016 | 58 | 354 | 2.6 | 11.3 | 0.00 | 0.00 | 0.00 | 61 | 426.7 |
| 20260510120515 | 58 | 22 | 3.5 | 11.3 | 0.00 | 0.00 | 0.00 | 61 | 368.8 |
| 20260510120014 | 58 | 38 | 1.7 | 9.6 | 0.00 | 0.00 | 0.00 | 62 | 315.7 |
| 20260510115513 | 57 | 34 | 3.5 | 9.6 | 0.00 | 0.00 | 0.00 | 62 | 333.2 |
| 20260510115012 | 57 | 31 | 5.2 | 9.6 | 0.00 | 0.00 | 0.00 | 63 | 331.8 |
| 20260510114511 | 57 | 39 | 3.5 | 9.6 | 0.00 | 0.00 | 0.00 | 64 | 350.8 |
| 20260510114010 | 57 | 50 | 2.6 | 9.6 | 0.00 | 0.00 | 0.00 | 65 | 301.3 |
| 20260510113509 | 57 | 47 | 2.6 | 9.6 | 0.00 | 0.00 | 0.00 | 65 | 285.4 |
| 20260510113009 | 58 | 43 | 2.6 | 9.6 | 0.00 | 0.00 | 0.00 | 65 | 272.7 |
| 20260510112508 | 58 | 32 | 3.5 | 9.6 | 0.00 | 0.00 | 0.00 | 66 | 280.4 |
| 20260510112007 | 58 | 46 | 3.5 | 9.6 | 0.00 | 0.00 | 0.00 | 66 | 285.3 |
| 20260510111507 | 58 | 33 | 3.5 | 9.6 | 0.00 | 0.00 | 0.00 | 66 | 300.2 |
| 20260510105936 | 58 | 39 | 2.6 | 9.6 | 0.00 | 0.00 | 0.00 | 68 | 273.5 |
| 20260510105436 | 58 | 36 | 2.6 | 9.6 | 0.00 | 0.00 | 0.00 | 68 | 265.7 |
| 20260510104419 | 57 | 38 | 2.6 | 9.6 | 0.00 | 0.00 | 0.00 | 70 | 260.8 |
| 20260510103402 | 57 | 20 | 1.7 | 9.6 | 0.00 | 0.00 | 0.00 | 71 | 244.1 |
| 20260510102901 | 57 | 32 | 3.5 | 9.6 | 0.00 | 0.00 | 0.00 | 72 | 255.5 |
| 20260510102400 | 57 | 29 | 2.6 | 9.6 | 0.00 | 0.00 | 0.00 | 72 | 243.6 |
| 20260510101900 | 57 | 24 | 2.6 | 9.6 | 0.00 | 0.00 | 0.00 | 73 | 242.7 |
| 20260510101400 | 57 | 34 | 1.7 | 9.6 | 0.00 | 0.00 | 0.00 | 73 | 256.3 |
| 20260510100859 | 58 | 43 | 2.6 | 9.6 | 0.00 | 0.00 | 0.00 | 73 | 271.9 |
| 20260510100358 | 58 | 38 | 0.9 | 9.6 | 0.00 | 0.00 | 0.00 | 73 | 248.1 |
| 20260510095857 | 58 | 25 | 0.0 | 9.6 | 0.00 | 0.00 | 0.00 | 72 | 230.5 |
| 20260510095356 | 58 | 30 | 0.9 | 9.6 | 0.00 | 0.00 | 0.00 | 73 | 225.6 |
| 20260510094855 | 58 | 22 | 0.0 | 9.6 | 0.00 | 0.00 | 0.00 | 72 | 216.4 |
| 20260510094354 | 59 | 19 | 0.0 | 9.6 | 0.00 | 0.00 | 0.00 | 71 | 214.0 |
| 20260510093853 | 59 | 19 | 0.0 | 9.6 | 0.00 | 0.00 | 0.00 | 70 | 214.8 |
| 20260510093352 | 59 | 19 | 0.0 | 9.6 | 0.00 | 0.00 | 0.00 | 69 | 216.6 |
| 20260510092851 | 60 | 19 | 0.0 | 9.6 | 0.00 | 0.00 | 0.00 | 69 | 219.9 |
| 20260510092351 | 60 | 19 | 0.0 | 9.6 | 0.00 | 0.00 | 0.00 | 68 | 226.2 |
| 20260510090819 | 61 | 43 | 0.9 | 9.6 | 0.00 | 0.00 | 0.00 | 67 | 274.7 |
| 20260510090318 | 61 | 44 | 0.9 | 9.6 | 0.00 | 0.00 | 0.00 | 66 | 264.0 |
| 20260510085817 | 61 | 29 | 0.9 | 9.6 | 0.00 | 0.00 | 0.00 | 66 | 239.9 |
| 20260510085316 | 61 | 24 | 0.9 | 9.6 | 0.00 | 0.00 | 0.00 | 66 | 249.5 |
| 20260510084815 | 61 | 39 | 1.7 | 9.6 | 0.00 | 0.00 | 0.00 | 66 | 278.9 |
| 20260510084314 | 61 | 28 | 1.7 | 9.6 | 0.00 | 0.00 | 0.00 | 66 | 292.0 |
| 20260510083813 | 61 | 29 | 2.6 | 9.6 | 0.00 | 0.00 | 0.00 | 66 | 305.0 |
| 20260510083312 | 61 | 33 | 2.6 | 9.6 | 0.00 | 0.00 | 0.00 | 67 | 277.9 |
| 20260510082811 | 62 | 22 | 2.6 | 9.6 | 0.00 | 0.00 | 0.00 | 67 | 299.6 |
| 20260510082311 | 62 | 28 | 1.7 | 9.6 | 0.00 | 0.00 | 0.00 | 67 | 327.3 |
| 20260510081810 | 62 | 40 | 1.7 | 9.6 | 0.00 | 0.00 | 0.00 | 67 | 416.9 |
| 20260510081309 | 62 | 18 | 2.6 | 9.6 | 0.00 | 0.00 | 0.00 | 67 | 289.4 |
| 20260510080808 | 62 | 26 | 3.5 | 9.6 | 0.00 | 0.00 | 0.00 | 67 | 301.4 |
| 20260510080307 | 62 | 36 | 1.7 | 9.6 | 0.00 | 0.00 | 0.00 | 68 | 276.1 |
| 20260510075806 | 62 | 34 | 2.6 | 9.6 | 0.00 | 0.00 | 0.00 | 68 | 296.8 |
| 20260510075306 | 62 | 35 | 1.7 | 9.6 | 0.00 | 0.00 | 0.00 | 69 | 262.0 |
| 20260510074805 | 62 | 48 | 1.7 | 9.6 | 0.00 | 0.00 | 0.00 | 68 | 274.7 |
| 20260510074304 | 62 | 33 | 2.6 | 9.6 | 0.00 | 0.00 | 0.00 | 69 | 261.9 |
| 20260510073804 | 62 | 39 | 1.7 | 9.6 | 0.00 | 0.00 | 0.00 | 68 | 257.6 |
| 20260510073303 | 63 | 11 | 1.7 | 9.6 | 0.00 | 0.00 | 0.00 | 69 | 256.7 |
| 20260510072802 | 63 | 29 | 1.7 | 9.6 | 0.00 | 0.00 | 0.00 | 69 | 295.9 |
| 20260510072305 | 63 | 21 | 2.6 | 9.6 | 0.00 | 0.00 | 0.00 | 69 | 348.7 |
| 20260510071802 | 63 | 30 | 1.7 | 9.6 | 0.00 | 0.00 | 0.00 | 69 | 283.2 |
| 20260510071301 | 63 | 47 | 1.7 | 9.6 | 0.00 | 0.00 | 0.00 | 69 | 280.3 |
| 20260510070800 | 63 | 16 | 1.7 | 9.6 | 0.00 | 0.00 | 0.00 | 69 | 269.0 |
| 20260510065744 | 64 | 54 | 0.0 | 9.6 | 0.00 | 0.00 | 0.00 | 70 | 315.0 |
| 20260510065243 | 64 | 54 | 0.9 | 9.6 | 0.00 | 0.00 | 0.00 | 69 | 315.0 |
| 20260510064742 | 64 | 54 | 0.0 | 9.6 | 0.00 | 0.00 | 0.00 | 68 | 314.8 |
| 20260510064241 | 65 | 54 | 0.0 | 9.6 | 0.00 | 0.00 | 0.00 | 68 | 314.7 |
| 20260510063740 | 65 | 54 | 0.0 | 9.6 | 0.00 | 0.00 | 0.00 | 68 | 314.5 |
| 20260510063240 | 65 | 53 | 0.0 | 9.6 | 0.00 | 0.00 | 0.00 | 67 | 314.6 |
| 20260510062739 | 65 | 53 | 0.0 | 9.6 | 0.00 | 0.00 | 0.00 | 67 | 314.8 |
| 20260510062239 | 65 | 53 | 0.9 | 9.6 | 0.00 | 0.00 | 0.00 | 66 | 314.9 |
| 20260510061739 | 65 | 53 | 0.0 | 9.6 | 0.00 | 0.00 | 0.00 | 65 | 314.9 |
| 20260510061239 | 65 | 53 | 0.0 | 9.6 | 0.00 | 0.00 | 0.00 | 65 | 315.4 |
| 20260510060222 | 66 | 53 | 0.9 | 9.6 | 0.00 | 0.00 | 0.00 | 64 | 316.7 |
| 20260510055721 | 66 | 53 | 0.9 | 9.6 | 0.00 | 0.00 | 0.00 | 64 | 318.3 |
| 20260510055220 | 66 | 55 | 0.9 | 9.6 | 0.00 | 0.00 | 0.00 | 63 | 320.4 |
| 20260510054719 | 66 | 56 | 0.0 | 9.6 | 0.00 | 0.00 | 0.00 | 64 | 320.5 |
| 20260510054219 | 66 | 55 | 0.9 | 9.6 | 0.00 | 0.00 | 0.00 | 62 | 320.0 |
| 20260510053718 | 66 | 55 | 0.0 | 9.6 | 0.00 | 0.00 | 0.00 | 62 | 319.8 |
| 20260510053217 | 67 | 55 | 0.0 | 9.6 | 0.00 | 0.00 | 0.00 | 64 | 319.8 |
| 20260510052716 | 67 | 55 | 0.9 | 9.6 | 0.00 | 0.00 | 0.00 | 64 | 319.8 |
| 20260510052215 | 67 | 55 | 0.9 | 9.6 | 0.00 | 0.00 | 0.00 | 64 | 320.0 |
| 20260510051714 | 68 | 55 | 0.0 | 9.6 | 0.00 | 0.00 | 0.00 | 61 | 319.9 |
| 20260510051213 | 68 | 55 | 0.9 | 9.6 | 0.00 | 0.00 | 0.00 | 61 | 320.1 |
| 20260510050157 | 68 | 55 | 0.0 | 9.6 | 0.00 | 0.00 | 0.00 | 59 | 320.1 |
| 20260510045140 | 69 | 55 | 0.0 | 9.6 | 0.00 | 0.00 | 0.00 | 57 | 320.0 |
| 20260510044123 | 69 | 56 | 0.0 | 9.6 | 0.00 | 0.00 | 0.00 | 58 | 320.9 |
| 20260510043622 | 69 | 56 | 0.0 | 9.6 | 0.00 | 0.00 | 0.00 | 58 | 320.8 |
| 20260510043121 | 69 | 56 | 0.0 | 9.6 | 0.00 | 0.00 | 0.00 | 59 | 320.9 |
| 20260510042620 | 69 | 56 | 0.0 | 9.6 | 0.00 | 0.00 | 0.00 | 55 | 320.5 |
| 20260510042119 | 69 | 56 | 0.0 | 9.6 | 0.00 | 0.00 | 0.00 | 56 | 319.2 |
| 20260510041618 | 69 | 56 | 0.9 | 9.6 | 0.00 | 0.00 | 0.00 | 55 | 317.0 |
| 20260510041117 | 69 | 56 | 0.0 | 9.6 | 0.00 | 0.00 | 0.00 | 55 | 311.1 |
| 20260510040617 | 69 | 55 | 0.0 | 9.6 | 0.00 | 0.00 | 0.00 | 55 | 298.2 |
| 20260510040116 | 69 | 39 | 0.9 | 9.6 | 0.00 | 0.00 | 0.00 | 55 | 280.3 |
| 20260510035100 | 69 | 46 | 0.9 | 9.6 | 0.00 | 0.00 | 0.00 | 57 | 277.8 |
| 20260510034559 | 69 | 29 | 1.7 | 9.6 | 0.00 | 0.00 | 0.00 | 57 | 265.2 |
| 20260510034059 | 69 | 23 | 1.7 | 9.6 | 0.00 | 0.00 | 0.00 | 55 | 281.1 |
| 20260510033559 | 69 | 69 | 1.7 | 9.6 | 0.00 | 0.00 | 0.00 | 56 | 314.9 |
| 20260510032543 | 70 | 23 | 0.0 | 9.6 | 0.00 | 0.00 | 0.00 | 58 | 225.9 |
| 20260510030454 | 71 | 23 | 0.0 | 9.6 | 0.00 | 0.00 | 0.00 | 54 | 233.9 |
| 20260510025953 | 71 | 23 | 0.0 | 9.6 | 0.00 | 0.00 | 0.00 | 54 | 240.9 |
| 20260510025452 | 72 | 23 | 0.0 | 9.6 | 0.00 | 0.00 | 0.00 | 53 | 254.8 |
| 20260510024951 | 72 | 29 | 0.9 | 9.6 | 0.00 | 0.00 | 0.00 | 53 | 281.8 |
| 20260510023418 | 72 | 33 | 1.7 | 9.6 | 0.00 | 0.00 | 0.00 | 50 | 308.0 |
| 20260510020813 | 72 | 47 | 2.6 | 9.6 | 0.00 | 0.00 | 0.00 | 51 | 829.6 |
| 20260510020313 | 72 | 300 | 1.7 | 9.6 | 0.00 | 0.00 | 0.00 | 53 | 1175.5 |
| 20260510015811 | 73 | 357 | 0.9 | 9.6 | 0.00 | 0.00 | 0.00 | 55 | 1225.1 |
| 20260510014756 | 74 | 357 | 0.9 | 9.6 | 0.00 | 0.00 | 0.00 | 55 | 1224.8 |
| 20260510014254 | 74 | 357 | 0.9 | 9.6 | 0.00 | 0.00 | 0.00 | 56 | 1224.5 |
| 20260510013754 | 74 | 357 | 0.0 | 9.6 | 0.00 | 0.00 | 0.00 | 54 | 1223.4 |
| 20260510013252 | 75 | 357 | 0.0 | 9.6 | 0.00 | 0.00 | 0.00 | 54 | 1222.5 |
| 20260510012752 | 75 | 357 | 0.0 | 9.6 | 0.00 | 0.00 | 0.00 | 52 | 1222.4 |
| 20260510012250 | 76 | 358 | 0.9 | 9.6 | 0.00 | 0.00 | 0.00 | 52 | 1224.5 |
| 20260510011750 | 76 | 358 | 0.0 | 9.6 | 0.00 | 0.00 | 0.00 | 51 | 1225.7 |
| 20260510011248 | 77 | 358 | 0.0 | 9.6 | 0.00 | 0.00 | 0.00 | 49 | 1225.1 |
| 20260510010232 | 78 | 358 | 0.0 | 9.6 | 0.00 | 0.00 | 0.00 | 50 | 1223.6 |
| 20260510005731 | 79 | 358 | 0.0 | 9.6 | 0.00 | 0.00 | 0.00 | 52 | 1223.7 |
| 20260510005230 | 79 | 358 | 0.0 | 9.6 | 0.00 | 0.00 | 0.00 | 50 | 1224.1 |
| 20260510004729 | 80 | 358 | 0.0 | 9.6 | 0.00 | 0.00 | 0.00 | 49 | 1223.8 |
| 20260510004229 | 80 | 358 | 0.0 | 9.6 | 0.00 | 0.00 | 0.00 | 48 | 1222.7 |
| 20260510003729 | 80 | 358 | 0.0 | 9.6 | 0.00 | 0.00 | 0.00 | 45 | 1220.8 |
| 20260510003228 | 81 | 358 | 0.0 | 9.6 | 0.00 | 0.00 | 0.00 | 42 | 1218.5 |
| 20260510002210 | 82 | 358 | 0.0 | 9.6 | 0.00 | 0.00 | 0.00 | 42 | 1212.8 |
| 20260510000638 | 82 | 358 | 0.9 | 9.6 | 0.00 | 0.00 | 0.00 | 38 | 1163.0 |
| 20260510000137 | 83 | 0 | 0.0 | 9.6 | 0.00 | 0.00 | 0.00 | 38 | 1107.8 |
| 20260509235636 | 83 | 0 | 0.0 | 9.6 | 0.00 | 0.00 | 0.00 | 38 | 997.4 |
| 20260509234620 | 84 | 0 | 1.7 | 9.6 | 0.00 | 0.00 | 0.00 | 35 | 909.2 |
| 20260509234119 | 84 | 358 | 0.9 | 9.6 | 0.00 | 0.00 | 0.00 | 34 | 827.8 |
| 20260509233102 | 85 | 357 | 1.7 | 9.6 | 0.00 | 0.00 | 0.00 | 34 | 292.9 |
| 20260509232601 | 85 | 1 | 1.7 | 9.6 | 0.00 | 0.00 | 0.00 | 33 | 240.7 |
| 20260509232100 | 85 | 0 | 0.0 | 9.6 | 0.00 | 0.00 | 0.00 | 31 | 298.0 |
| 20260509231559 | 85 | 1 | 0.9 | 9.6 | 0.00 | 0.00 | 0.00 | 33 | 425.4 |
| 20260509231058 | 85 | 3 | 0.9 | 9.6 | 0.00 | 0.00 | 0.00 | 32 | 672.6 |
| 20260509230557 | 85 | 319 | 1.7 | 9.6 | 0.00 | 0.00 | 0.00 | 33 | 1004.3 |
| 20260509225540 | 85 | 299 | 0.0 | 9.6 | 0.00 | 0.00 | 0.00 | 34 | 1012.0 |
| 20260509225040 | 85 | 297 | 0.0 | 9.6 | 0.00 | 0.00 | 0.00 | 32 | 978.4 |
| 20260509224539 | 84 | 259 | 0.0 | 9.6 | 0.00 | 0.00 | 0.00 | 32 | 928.4 |
| 20260509224038 | 84 | 257 | 0.0 | 9.6 | 0.00 | 0.00 | 0.00 | 35 | 923.9 |
| 20260509223537 | 84 | 256 | 0.0 | 9.6 | 0.00 | 0.00 | 0.00 | 34 | 925.3 |
| 20260509223036 | 84 | 256 | 0.0 | 9.6 | 0.00 | 0.00 | 0.00 | 32 | 931.0 |
| 20260509222535 | 84 | 256 | 0.0 | 9.6 | 0.00 | 0.00 | 0.00 | 32 | 942.8 |
| 20260509222036 | 84 | 290 | 0.9 | 9.6 | 0.00 | 0.00 | 0.00 | 32 | 971.4 |
| 20260509221533 | 84 | 283 | 0.9 | 9.6 | 0.00 | 0.00 | 0.00 | 32 | 927.9 |
| 20260509221032 | 84 | 25 | 0.9 | 9.6 | 0.00 | 0.00 | 0.00 | 33 | 809.0 |
| 20260509220531 | 84 | 302 | 0.0 | 9.6 | 0.00 | 0.00 | 0.00 | 32 | 1022.7 |
| 20260509220030 | 84 | 301 | 0.0 | 9.6 | 0.00 | 0.00 | 0.00 | 33 | 987.1 |
| 20260509215013 | 84 | 332 | 0.9 | 9.6 | 0.00 | 0.00 | 0.00 | 33 | 919.3 |
| 20260509214512 | 84 | 345 | 0.0 | 9.6 | 0.00 | 0.00 | 0.00 | 34 | 977.6 |
| 20260509214012 | 84 | 314 | 0.0 | 9.6 | 0.00 | 0.00 | 0.00 | 33 | 1058.0 |
| 20260509213511 | 84 | 297 | 0.0 | 9.6 | 0.00 | 0.00 | 0.00 | 32 | 1036.1 |
| 20260509213010 | 84 | 316 | 0.9 | 9.6 | 0.00 | 0.00 | 0.00 | 33 | 1021.8 |
| 20260509212509 | 84 | 3 | 0.9 | 9.6 | 0.00 | 0.00 | 0.00 | 32 | 934.4 |
| 20260509212008 | 84 | 295 | 0.9 | 9.6 | 0.00 | 0.00 | 0.00 | 32 | 983.2 |
| 20260509211507 | 84 | 292 | 1.7 | 9.6 | 0.00 | 0.00 | 0.00 | 31 | 937.0 |
| 20260509211007 | 84 | 231 | 2.6 | 9.6 | 0.00 | 0.00 | 0.00 | 30 | 894.7 |
| 20260509210506 | 84 | 245 | 1.7 | 9.6 | 0.00 | 0.00 | 0.00 | 32 | 906.7 |
| 20260509210006 | 84 | 262 | 1.7 | 9.6 | 0.00 | 0.00 | 0.00 | 32 | 932.1 |
| 20260509205506 | 85 | 208 | 1.7 | 9.6 | 0.00 | 0.00 | 0.00 | 29 | 915.5 |
| 20260509205005 | 85 | 284 | 1.7 | 9.6 | 0.00 | 0.00 | 0.00 | 31 | 1005.1 |
| 20260509204504 | 86 | 289 | 1.7 | 9.6 | 0.00 | 0.00 | 0.00 | 34 | 1005.1 |
| 20260509204004 | 85 | 287 | 0.0 | 9.6 | 0.00 | 0.00 | 0.00 | 31 | 960.2 |